Погода в Ташелане

Россия / Республика Бурятия     51°41′02″N   108°53′48″E
темп.,
°C
ветер,
м/с
пор.,
м/с
влажн.,
%
обл.,
%
осадки,
мм/ч
давл.,
гПа
погр.,
м
5 декабря, вс
вс523:00−10юз2296100 0.0 102235
02:00−12зюз249851 0.0 102462
05:00−10зюз269995 0.0 1024131
08:00−10з259894 0.0 1026100
11:00−6з1694100 2.8 1025356
14:00−4зсз819641 3.9 10262179
17:00−8зсз613695 0.0 1029827
20:00−9з613795 0.0 1031625
6 декабря, пн
пн623:00−10зюз310805 0.0 1031247
02:00−16ююв11965 0.0 103214
05:00−16ююв119853 0.0 103112
08:00−17ююв119839 0.0 102911
11:00−9юз12775 0.0 1027126
14:00−5зюз23660 0.0 1023259
17:00−12юз11935 0.0 10269
20:00−15ю119615 0.0 102811
7 декабря, вт
вт723:00−16ююв11965 0.0 102910
02:00−17вюв11968 0.0 10299
05:00−17вюв11965 0.0 10299
08:00−17вюв11965 0.0 10299
11:00−9ю017023 0.0 102786
14:00−4ю016179 0.0 1023197
17:00−12в119099 0.0 102410
20:00−13в1194100 0.0 102410
8 декабря, ср
ср823:00−14в119496 0.0 102210
02:00−13всв0094100 0.0 102110
05:00−13з1196100 0.0 102110
08:00−12з1191100 0.0 102154
11:00−9зюз1278100 0.0 1021135
14:00−6з2376100 0.0 1021198
17:00−11з119799 0.0 102515
20:00−13з1199100 0.0 102812
9 декабря, чт
чт923:00−13зюз2310093 0.0 103073
02:00−16юз1110097 0.0 103226
05:00−18юз119994 0.0 103313
08:00−17ююз119797 0.0 103410
11:00−11з128278 0.0 1033121
14:00−9зсз137163 0.0 1032420
17:00−15зсз1195100 0.0 10379
20:00−16сз119195 0.0 104015